Flag for U.S.A. Weather past 2 weeks in Wilmington, Delaware, U.S.A.

Now
78 °F

Sunny.


Feels Like: 80 °F
Forecast: 61 / 82 °F
Wind: 8 mph from Southwest

Location: New Castle County Airport

Current Time: Jul 31, 2014 at 12:13:26 PM

Latest Report: Jul 31, 2014 at 10:51 AM


Visibility: 10 mi

Pressure: 30.11 "Hg

Humidity: 62%

Dew point: 64 °F

Location of WilmingtonLocation

Historic Weather in Wilmington — Graph

°F

Wilmington temperature yesterday

Maximum temperature yesterday: 78 °F (at 1:51 PM)
Minimum temperature yesterday: 58 °F (at 4:51 AM)
Average temperature yesterday: 69 °F

Past Weeks' High & Low Weather Summary

 TemperatureHumidityPressure
High90 °F (Jul 23, 2:51 PM)96% (Jul 24, 2:51 AM)30.25 "Hg (Jul 24, 2:51 AM)
Low58 °F (Jul 18, 5:51 AM)37% (Jul 18, 4:51 PM)29.56 "Hg (Jul 28, 4:51 AM)
Average74 °F67%29.99 "Hg
* Reported Jul 16 9:51 AM — Jul 31 9:51 AM, Wilmington, Weather by CustomWeather, © 2014

Note: Actual official high and low records may vary slightly from our data, if they occured in-between our weather recording intervals... More about our weather records

Advertising

Wilmington weather history for previous 24 hours

 ConditionsComfort  
Time TempWeatherWind HumidityBarometerVisibility
9:51 AM
Jul 31
75 °FSunny.7 mph69%30.11 "Hg10 mi
8:51 AM70 °FSunny.6 mph76%30.12 "Hg10 mi
7:51 AM66 °FSunny.3 mph78%30.11 "Hg10 mi
6:51 AM64 °FPassing clouds.3 mph78%30.10 "Hg10 mi
5:51 AM63 °FPassing clouds.5 mph78%30.09 "Hg10 mi
4:51 AM63 °FClear.6 mph78%30.07 "Hg10 mi
3:51 AM65 °FClear.No wind68%30.08 "Hg10 mi
2:51 AM65 °FClear.No wind76%30.08 "Hg10 mi
1:51 AM65 °FClear.No wind78%30.07 "Hg10 mi
12:51 AM66 °FClear.No wind70%30.07 "Hg10 mi
11:51 PM
Jul 30
68 °FClear.6 mph61%30.06 "Hg10 mi
10:51 PM69 °FClear.6 mph59%30.06 "Hg10 mi
9:51 PM70 °FClear.5 mph59%30.07 "Hg10 mi
8:51 PM73 °FSunny.5 mph51%30.06 "Hg10 mi
7:51 PM74 °FSunny.6 mph48%30.04 "Hg10 mi
6:51 PM76 °FSunny.6 mph47%30.03 "Hg10 mi
5:51 PM77 °FSunny.9 mph45%30.03 "Hg10 mi
4:51 PM78 °FScattered clouds.9 mph45%30.03 "Hg10 mi
3:51 PM78 °FScattered clouds.3 mph42%30.04 "Hg10 mi
2:51 PM77 °FPassing clouds.No wind44%30.04 "Hg10 mi
1:51 PM78 °FPassing clouds.8 mph45%30.05 "Hg10 mi
12:51 PM77 °FScattered clouds.No wind42%30.06 "Hg10 mi
Weather by CustomWeather, © 2014

See weather overviewHow to use our weather pages